When you browse on this site, cookies collect data to enhance your experience and personalize the content and advertising you see.
Visit our Privacy Policy to learn more. By continuing to use the site, you agree to this use of cookies and data.
  • In Hungary
  • List of Countries
  • For 7 days
  • Water Temperature
  • Satellite Maps
  • Weather Map
  • News
  • Weather Widgets
  • user-avatar
    Login

    Hourly Weather Nowe Bystre

    Today, 19 November, Monday

    Time Temperature Precipitation Wind Pressure Humidity
    00:00 -4°C° 0 mm 1 mps 687 mmHg 69%
    01:00 -4°C° 0 mm 1 mps 687 mmHg 66%
    02:00 -4°C° 0 mm 1 mps 687 mmHg 66%
    03:00 -4°C° 0 mm 1 mps 686 mmHg 66%
    04:00 -6°C° 0 mm 1 mps 686 mmHg 65%
    05:00 -6°C° 0 mm 1 mps 686 mmHg 67%
    06:00 -6°C° 0 mm 1 mps 686 mmHg 68%
    07:00 -6°C° 0 mm 1 mps 686 mmHg 69%
    08:00 -6°C° 0 mm 2 mps 686 mmHg 69%
    09:00 -5°C° 0 mm 2 mps 686 mmHg 68%
    10:00 -4°C° 0 mm 2 mps 687 mmHg 67%
    11:00 -3°C° 0 mm 2 mps 687 mmHg 67%
    12:00 -3°C° 0 mm 2 mps 687 mmHg 68%
    13:00 -2°C° 0 mm 2 mps 687 mmHg 69%
    14:00 -3°C° 0 mm 2 mps 687 mmHg 73%
    15:00 -3°C° 0 mm 2 mps 687 mmHg 78%
    16:00 -4°C° 0 mm 2 mps 687 mmHg 82%
    17:00 -4°C° 0 mm 2 mps 687 mmHg 84%
    18:00 -4°C° 0 mm 2 mps 687 mmHg 87%
    19:00 -5°C° 0 mm 2 mps 687 mmHg 89%
    20:00 -3°C° 0 mm 1 mps 687 mmHg 90%
    21:00 -3°C° 0 mm 1 mps 688 mmHg 90%
    22:00 -3°C° 0 mm 1 mps 688 mmHg 90%
    23:00 -3°C° 0 mm 1 mps 688 mmHg 91%

    Tomorrow, 20 November, Tuesday

    Time Temperature Precipitation Wind Pressure Humidity
    00:00 -3°C° 0 mm 1 mps 687 mmHg 91%
    01:00 -5°C° 0 mm 2 mps 687 mmHg 91%
    02:00 -5°C° 0 mm 2 mps 687 mmHg 91%
    03:00 -5°C° 0 mm 2 mps 687 mmHg 92%
    04:00 -5°C° 0 mm 2 mps 686 mmHg 93%
    05:00 -5°C° 0 mm 2 mps 686 mmHg 92%
    06:00 -5°C° 0 mm 2 mps 686 mmHg 92%
    07:00 -5°C° 0 mm 2 mps 686 mmHg 92%
    08:00 -3°C° 0 mm 2 mps 686 mmHg 84%
    09:00 -2°C° 0 mm 2 mps 686 mmHg 76%
    10:00 +1°C° 0 mm 2 mps 686 mmHg 69%
    11:00 +1°C° 0 mm 3 mps 686 mmHg 66%
    12:00 +1°C° 0 mm 3 mps 686 mmHg 63%
    13:00 +2°C° 0 mm 3 mps 686 mmHg 60%
    14:00 +1°C° 0.2 mm 3 mps 685 mmHg 67%
    15:00 +1°C° 0.2 mm 2 mps 685 mmHg 73%
    16:00 -1°C° 0.2 mm 2 mps 685 mmHg 79%
    17:00 -1°C° 0.4 mm 2 mps 685 mmHg 82%
    18:00 -1°C° 0.4 mm 2 mps 685 mmHg 85%
    19:00 -1°C° 0.4 mm 2 mps 685 mmHg 88%
    20:00 +1°C° 0.4 mm 1 mps 685 mmHg 89%
    21:00 +1°C° 0.4 mm 1 mps 685 mmHg 90%
    22:00 +1°C° 0.4 mm 1 mps 685 mmHg 91%
    23:00 +1°C° 0.1 mm 1 mps 685 mmHg 92%

    Day after tomorrow, 21 November, Wednesday

    Time Temperature Precipitation Wind Pressure Humidity
    00:00 +1°C° 0.1 mm 1 mps 685 mmHg 92%
    01:00 0°C° 0.1 mm 1 mps 686 mmHg 93%
    02:00 0°C° 0 mm 1 mps 685 mmHg 93%
    03:00 0°C° 0 mm 1 mps 685 mmHg 94%
    04:00 0°C° 0 mm 1 mps 685 mmHg 94%
    05:00 0°C° 0 mm 1 mps 686 mmHg 94%
    06:00 0°C° 0 mm 1 mps 686 mmHg 94%
    07:00 0°C° 0 mm 1 mps 686 mmHg 94%
    08:00 +1°C° 0 mm 1 mps 687 mmHg 92%
    09:00 +2°C° 0 mm 1 mps 687 mmHg 89%
    10:00 +3°C° 0 mm 1 mps 688 mmHg 87%
    11:00 +3°C° 0 mm 1 mps 688 mmHg 86%
    12:00 +4°C° 0 mm 1 mps 688 mmHg 85%
    13:00 +3°C° 0 mm 2 mps 688 mmHg 84%
    14:00 +2°C° 0 mm 2 mps 688 mmHg 88%
    15:00 +2°C° 0 mm 1 mps 688 mmHg 91%
    16:00 +1°C° 0 mm 1 mps 688 mmHg 94%
    17:00 +1°C° 0 mm 1 mps 688 mmHg 94%
    18:00 +1°C° 0 mm 1 mps 688 mmHg 94%
    19:00 0°C° 0 mm 1 mps 688 mmHg 94%
    20:00 0°C° 0 mm 1 mps 688 mmHg 94%
    21:00 0°C° 0 mm 1 mps 689 mmHg 94%
    22:00 0°C° 0 mm 1 mps 689 mmHg 94%
    23:00 0°C° 0 mm 1 mps 689 mmHg 94%

    22 November, Thursday

    Time Temperature Precipitation Wind Pressure Humidity
    00:00 0°C° 0 mm 1 mps 689 mmHg 94%
    01:00 0°C° 0 mm 1 mps 689 mmHg 94%
    02:00 0°C° 0 mm 1 mps 690 mmHg 94%
    03:00 0°C° 0 mm 1 mps 690 mmHg 94%
    04:00 0°C° 0 mm 1 mps 690 mmHg 94%
    05:00 0°C° 0 mm 1 mps 690 mmHg 94%
    06:00 0°C° 0 mm 1 mps 690 mmHg 94%
    07:00 0°C° 0 mm 1 mps 690 mmHg 93%
    08:00 +1°C° 0 mm 1 mps 691 mmHg 91%
    09:00 +1°C° 0 mm 1 mps 691 mmHg 88%
    10:00 +2°C° 0 mm 1 mps 692 mmHg 86%
    11:00 +3°C° 0 mm 1 mps 692 mmHg 85%
    12:00 +3°C° 0 mm 1 mps 692 mmHg 85%
    13:00 +4°C° 0 mm 1 mps 692 mmHg 84%
    14:00 +3°C° 0 mm 1 mps 692 mmHg 87%
    15:00 +2°C° 0 mm 1 mps 692 mmHg 91%
    16:00 +2°C° 0 mm 1 mps 692 mmHg 94%
    17:00 0°C° 0 mm 0 mps 692 mmHg 94%
    18:00 0°C° 0 mm 0 mps 693 mmHg 94%
    19:00 0°C° 0 mm 0 mps 693 mmHg 95%
    20:00 -1°C° 0 mm 0 mps 693 mmHg 94%
    21:00 -1°C° 0 mm 0 mps 693 mmHg 94%
    22:00 -1°C° 0 mm 0 mps 693 mmHg 94%
    23:00 -1°C° 0 mm 0 mps 693 mmHg 94%

    23 November, Friday

    Time Temperature Precipitation Wind Pressure Humidity
    00:00 -1°C° 0 mm 0 mps 694 mmHg 94%
    01:00 -1°C° 0 mm 0 mps 694 mmHg 94%
    02:00 -1°C° 0 mm 0 mps 694 mmHg 94%
    03:00 -1°C° 0 mm 0 mps 694 mmHg 94%
    04:00 -1°C° 0 mm 0 mps 694 mmHg 94%
    05:00 -1°C° 0 mm 0 mps 694 mmHg 94%
    06:00 -1°C° 0 mm 0 mps 694 mmHg 94%
    07:00 -1°C° 0 mm 0 mps 694 mmHg 94%
    08:00 0°C° 0 mm 0 mps 695 mmHg 90%
    09:00 +3°C° 0 mm 1 mps 695 mmHg 86%
    10:00 +5°C° 0 mm 1 mps 696 mmHg 82%
    11:00 +5°C° 0 mm 1 mps 696 mmHg 81%
    12:00 +6°C° 0 mm 1 mps 696 mmHg 80%
    13:00 +6°C° 0 mm 1 mps 696 mmHg 79%
    14:00 +5°C° 0 mm 1 mps 695 mmHg 83%
    15:00 +4°C° 0 mm 1 mps 695 mmHg 88%
    16:00 +3°C° 0 mm 1 mps 694 mmHg 93%
    17:00 +2°C° 0 mm 1 mps 694 mmHg 93%
    18:00 +2°C° 0 mm 1 mps 694 mmHg 94%
    19:00 +2°C° 0 mm 1 mps 694 mmHg 94%
    20:00 +2°C° 0 mm 1 mps 694 mmHg 94%
    21:00 +1°C° 0 mm 1 mps 694 mmHg 94%
    22:00 +1°C° 0 mm 1 mps 694 mmHg 94%
    23:00 +1°C° 0 mm 1 mps 693 mmHg 94%

    24 November, Saturday

    Time Temperature Precipitation Wind Pressure Humidity
    00:00 +1°C° 0 mm 1 mps 693 mmHg 94%
    01:00 +1°C° 0 mm 1 mps 693 mmHg 94%
    02:00 +1°C° 0 mm 1 mps 693 mmHg 94%
    03:00 +1°C° 0 mm 1 mps 692 mmHg 94%
    04:00 +1°C° 0 mm 1 mps 692 mmHg 94%
    05:00 +1°C° 0 mm 1 mps 692 mmHg 94%
    06:00 -1°C° 0 mm 2 mps 691 mmHg 94%
    07:00 -1°C° 0 mm 2 mps 691 mmHg 94%
    08:00 +1°C° 0 mm 2 mps 691 mmHg 89%
    09:00 +2°C° 0 mm 2 mps 692 mmHg 85%
    10:00 +3°C° 0 mm 2 mps 692 mmHg 81%
    11:00 +4°C° 0 mm 2 mps 691 mmHg 79%
    12:00 +4°C° 0 mm 2 mps 691 mmHg 77%
    13:00 +4°C° 0 mm 2 mps 690 mmHg 75%
    14:00 +4°C° 0 mm 2 mps 690 mmHg 79%
    15:00 +3°C° 0 mm 2 mps 690 mmHg 83%
    16:00 +3°C° 0 mm 1 mps 689 mmHg 87%
    17:00 +3°C° 0 mm 1 mps 689 mmHg 88%
    18:00 +3°C° 0 mm 1 mps 689 mmHg 88%
    19:00 +3°C° 0 mm 1 mps 689 mmHg 89%
    20:00 +3°C° 0 mm 1 mps 689 mmHg 90%
    21:00 +3°C° 0 mm 1 mps 689 mmHg 91%
    22:00 +2°C° 0 mm 1 mps 689 mmHg 91%
    23:00 +2°C° 0 mm 1 mps 688 mmHg 92%
    Show more